TimeCDT,TemperatureF,Dew PointF,Humidity,Sea Level PressureIn,VisibilityMPH,Wind Direction,Wind SpeedMPH,Gust SpeedMPH,PrecipitationIn,Events,Conditions,WindDirDegrees,DateUTC
12:14 AM,57.2,48.2,72,30.04,10.0,Calm,Calm,-,N/A,,Clear,0,2013-05-07 05:14:00
12:33 AM,55.4,48.2,77,30.04,10.0,Calm,Calm,-,N/A,,Clear,0,2013-05-07 05:33:00
12:54 AM,55.4,48.2,77,30.04,10.0,Calm,Calm,-,N/A,,Clear,0,2013-05-07 05:54:00
1:14 AM,55.4,48.2,77,30.04,10.0,Calm,Calm,-,N/A,,Clear,0,2013-05-07 06:14:00
1:33 AM,53.6,48.2,82,30.04,10.0,Calm,Calm,-,N/A,,Clear,0,2013-05-07 06:33:00
1:54 AM,55.4,46.4,72,30.04,10.0,Calm,Calm,-,N/A,,Clear,0,2013-05-07 06:54:00
2:14 AM,53.6,46.4,77,30.04,10.0,Calm,Calm,-,N/A,,Clear,0,2013-05-07 07:14:00
2:34 AM,53.6,46.4,77,30.04,10.0,Calm,Calm,-,N/A,,Clear,0,2013-05-07 07:34:00
2:54 AM,53.6,46.4,77,30.04,10.0,Calm,Calm,-,N/A,,Clear,0,2013-05-07 07:54:00
3:14 AM,51.8,46.4,82,30.04,10.0,Calm,Calm,-,N/A,,Clear,0,2013-05-07 08:14:00
3:34 AM,53.6,46.4,77,30.03,10.0,Calm,Calm,-,N/A,,Clear,0,2013-05-07 08:34:00
3:54 AM,50.0,46.4,87,30.04,10.0,Calm,Calm,-,N/A,,Clear,0,2013-05-07 08:54:00
4:14 AM,50.0,46.4,87,30.04,10.0,Calm,Calm,-,N/A,,Clear,0,2013-05-07 09:14:00
4:34 AM,50.0,46.4,87,30.04,10.0,Calm,Calm,-,N/A,,Clear,0,2013-05-07 09:34:00
4:54 AM,50.0,46.4,87,30.04,10.0,Calm,Calm,-,N/A,,Clear,0,2013-05-07 09:54:00
5:14 AM,50.0,46.4,87,30.04,10.0,Calm,Calm,-,N/A,,Clear,0,2013-05-07 10:14:00
5:34 AM,48.2,46.4,93,30.04,10.0,Calm,Calm,-,N/A,,Clear,0,2013-05-07 10:34:00
5:54 AM,48.2,46.4,93,30.04,10.0,Calm,Calm,-,N/A,,Clear,0,2013-05-07 10:54:00
6:13 AM,48.2,46.4,93,30.05,10.0,Calm,Calm,-,N/A,,Clear,0,2013-05-07 11:13:00
6:34 AM,50.0,46.4,87,30.05,10.0,Calm,Calm,-,N/A,,Clear,0,2013-05-07 11:34:00
6:45 AM,50.0,46.4,87,30.06,10.0,ENE,5.8,-,N/A,,Mostly Cloudy,70,2013-05-07 11:45:00
6:54 AM,51.8,48.2,88,30.06,10.0,Calm,Calm,-,N/A,,Clear,0,2013-05-07 11:54:00
7:45 AM,55.4,50.0,82,30.06,10.0,Calm,Calm,-,N/A,,Mostly Cloudy,0,2013-05-07 12:45:00
8:45 AM,62.6,50.0,63,30.07,10.0,Calm,Calm,-,N/A,,Mostly Cloudy,0,2013-05-07 13:45:00
9:45 AM,68.0,50.0,52,30.06,10.0,SSE,4.6,-,N/A,,Mostly Cloudy,150,2013-05-07 14:45:00
10:45 AM,73.4,48.2,41,30.05,10.0,South,4.6,-,N/A,,Mostly Cloudy,190,2013-05-07 15:45:00
11:45 AM,75.2,44.6,34,30.04,10.0,SE,6.9,-,N/A,,Mostly Cloudy,140,2013-05-07 16:45:00
12:45 PM,75.2,41.0,29,30.03,10.0,South,8.1,-,N/A,,Mostly Cloudy,180,2013-05-07 17:45:00
1:45 PM,77.0,42.8,29,30.01,10.0,South,5.8,21.9,N/A,,Mostly Cloudy,180,2013-05-07 18:45:00
2:45 PM,78.8,39.2,24,30.00,10.0,South,13.8,-,N/A,,Scattered Clouds,170,2013-05-07 19:45:00
3:45 PM,77.0,37.4,24,29.99,10.0,South,11.5,-,N/A,,Scattered Clouds,180,2013-05-07 20:45:00
5:45 PM,77.0,42.8,29,29.97,10.0,SSE,8.1,-,N/A,,Scattered Clouds,160,2013-05-07 22:45:00
6:45 PM,77.0,42.8,29,29.96,10.0,South,8.1,-,N/A,,Scattered Clouds,190,2013-05-07 23:45:00
8:45 PM,73.4,44.6,36,29.96,10.0,SW,3.5,-,N/A,,Scattered Clouds,220,2013-05-08 01:45:00
9:13 PM,69.8,46.4,43,29.97,10.0,Calm,Calm,-,N/A,,Clear,0,2013-05-08 02:13:00
9:34 PM,66.2,46.4,49,29.97,10.0,Calm,Calm,-,N/A,,Clear,0,2013-05-08 02:34:00
9:50 PM,66.2,46.4,49,29.97,10.0,SE,3.5,-,N/A,,Overcast,140,2013-05-08 02:50:00
9:53 PM,64.4,48.2,56,29.97,10.0,Calm,Calm,-,N/A,,Clear,0,2013-05-08 02:53:00
10:14 PM,62.6,46.4,55,29.98,10.0,SSE,3.5,-,N/A,,Clear,150,2013-05-08 03:14:00
10:34 PM,62.6,46.4,55,29.97,10.0,Calm,Calm,-,N/A,,Clear,0,2013-05-08 03:34:00
10:53 PM,60.8,48.2,63,29.97,10.0,SE,3.5,-,N/A,,Clear,140,2013-05-08 03:53:00
11:14 PM,60.8,48.2,63,29.97,10.0,Calm,Calm,-,N/A,,Clear,0,2013-05-08 04:14:00
11:34 PM,62.6,46.4,55,29.97,10.0,South,3.5,-,N/A,,Clear,170,2013-05-08 04:34:00
11:54 PM,60.8,48.2,63,29.97,10.0,South,3.5,-,N/A,,Clear,170,2013-05-08 04:54:00